Location: Unspecified
(49.9820°N, 20.4363°E)
Time: 13:45:39
(UTC+02:00)

ISS - Pass Details

Date: 23 May 2018
Orbit: 402 x 407 km, 51.6° (Epoch: 20 May)

Event Time Altitude Azimuth Distance (km) Brightness Sun altitude
Rises 02:13:38 0° 287° (WNW) 2,321 0.0 -16.2°
Reaches altitude 10° 02:15:44 10° 283° (WNW) 1,459 -1.1 -16.0°
Maximum altitude 02:18:56 54° 206° (SSW) 496 -3.8 -15.8°
Drops below altitude 10° 02:22:08 10° 127° (SE) 1,453 -1.1 -15.6°
Sets 02:24:13 0° 123° (ESE) 2,309 -0.1 -15.5°
